KD7TTL Weather Reports


Display with metric or nautical units.
time (UTC)temp
F
wind
direction
speed
MPH
gust
MPH
rain 1hr
in
rain 24hr
in
rain mn
in
humidity
%
barometer
mb
20260901060035 56 68 0.0 1.0 0.00 0.00 0.00 87 1010.2
20260901055512 56 51 0.0 1.0 0.00 0.00 0.00 86 1010.2
20260901055012 56 34 0.0 1.0 0.00 0.00 0.00 86 1010.3
20260901054529 57 51 0.0 1.0 0.00 0.00 0.00 86 1010.3
20260901054014 57 51 0.0 1.0 0.00 0.00 0.00 85 1010.3
20260901053516 57 51 0.0 1.0 0.00 0.00 0.00 86 1010.4
20260901053030 57 265 0.0 1.0 0.00 0.00 0.00 85 1010.3
20260901052513 57 34 0.0 0.0 0.00 0.00 0.00 85 1010.2
20260901052016 58 9 0.0 0.0 0.00 0.00 0.00 85 1010.2
20260901051533 58 51 0.0 1.0 0.00 0.00 0.00 84 1010.2
20260901051013 58 9 0.0 1.0 0.00 0.00 0.00 84 1010.3
20260901050513 58 325 0.0 1.0 0.00 0.00 0.00 84 1010.3
20260901050033 58 51 0.0 1.0 0.00 0.00 0.00 83 1010.3
20260901045514 59 93 0.0 1.0 0.00 0.00 0.00 83 1010.3
20260901045015 59 61 0.0 1.0 0.00 0.00 0.00 82 1010.4
20260901044531 59 9 0.0 1.0 0.00 0.00 0.00 82 1010.3
20260901044015 59 9 0.0 1.0 0.00 0.00 0.00 82 1010.3
20260901043513 60 51 0.0 1.0 0.00 0.00 0.00 82 1010.2
20260901043031 60 51 0.0 1.0 0.00 0.00 0.00 81 1010.3
20260901042511 60 34 0.0 1.0 0.00 0.00 0.00 80 1010.2
20260901042015 61 51 0.0 1.0 0.00 0.00 0.00 79 1010.2
20260901041530 61 9 0.0 1.0 0.00 0.00 0.00 79 1010.1
20260901041015 61 9 0.0 1.0 0.00 0.00 0.00 79 1010.0
20260901040513 61 51 0.0 1.0 0.00 0.00 0.00 78 1010.0
20260901040036 62 265 0.0 1.0 0.00 0.00 0.00 77 1010.0
20260901035517 62 9 0.0 1.0 0.00 0.00 0.00 77 1010.1
20260901035014 63 9 0.0 2.0 0.00 0.00 0.00 76 1010.0
20260901034528 63 51 0.0 2.0 0.00 0.00 0.00 75 1010.0
20260901034016 63 9 0.0 1.0 0.00 0.00 0.00 74 1009.9
20260901033513 64 334 0.0 1.0 0.00 0.00 0.00 73 1009.8
20260901033048 64 9 0.0 1.0 0.00 0.00 0.00 72 1009.8
20260901032513 65 9 0.0 1.0 0.00 0.00 0.00 71 1009.7
20260901032016 65 51 0.0 2.0 0.00 0.00 0.00 71 1009.6
20260901031534 65 9 0.0 2.0 0.00 0.00 0.00 70 1009.6
20260901031014 65 9 0.0 1.0 0.00 0.00 0.00 70 1009.5
20260901030518 66 9 0.0 1.0 0.00 0.00 0.00 70 1009.5
20260901030028 66 51 0.0 1.0 0.00 0.00 0.00 70 1009.4
20260901025516 66 265 0.0 2.0 0.00 0.00 0.00 70 1009.5
20260901025017 66 68 0.0 3.0 0.00 0.00 0.00 69 1009.5
20260901024529 66 34 0.0 3.0 0.00 0.00 0.00 69 1009.4
20260901024016 67 239 0.0 3.0 0.00 0.00 0.00 69 1009.5
20260901023517 67 9 0.0 3.0 0.00 0.00 0.00 68 1009.5
20260901023034 67 9 0.0 2.0 0.00 0.00 0.00 68 1009.4
20260901022514 68 34 0.0 2.0 0.00 0.00 0.00 68 1009.4
20260901022018 68 51 0.0 2.0 0.00 0.00 0.00 67 1009.5
20260901021530 68 68 0.0 3.0 0.00 0.00 0.00 67 1009.4
20260901021013 68 41 0.0 3.0 0.00 0.00 0.00 66 1009.4
20260901020514 69 309 0.0 3.0 0.00 0.00 0.00 66 1009.5
20260901020028 69 68 0.0 3.0 0.00 0.00 0.00 65 1009.5
20260901015518 69 9 1.0 5.0 0.00 0.00 0.00 65 1009.5
20260901015015 69 41 1.0 5.0 0.00 0.00 0.00 65 1009.5
20260901014528 70 9 1.0 4.0 0.00 0.00 0.00 64 1009.4
20260901014014 70 34 1.0 4.0 0.00 0.00 0.00 63 1009.4
20260901013516 70 39 1.0 3.0 0.00 0.00 0.00 63 1009.4
20260901013028 70 233 0.0 5.0 0.00 0.00 0.00 63 1009.5
20260901012515 70 221 2.0 5.0 0.00 0.00 0.00 62 1009.5
20260901012013 71 51 1.0 5.0 0.00 0.00 0.00 62 1009.5
20260901011531 71 41 1.0 5.0 0.00 0.00 0.00 62 1009.6
20260901011015 71 9 0.0 4.0 0.00 0.00 0.00 63 1009.5
20260901010514 71 26 1.0 7.0 0.00 0.00 0.00 63 1009.6
20260901010037 71 30 2.0 7.0 0.00 0.00 0.00 62 1009.6
20260901005515 72 44 1.0 5.0 0.00 0.00 0.00 62 1009.6
20260901005016 72 34 1.0 6.0 0.00 0.00 0.00 61 1009.6
20260901004534 72 24 1.0 6.0 0.00 0.00 0.00 60 1009.6
20260901004014 72 75 1.0 7.0 0.00 0.00 0.00 60 1009.6
20260901003514 73 9 2.0 7.0 0.00 0.00 0.00 59 1009.6
20260901003030 73 9 0.0 5.0 0.00 0.00 0.00 60 1009.7
20260901002517 73 44 1.0 9.0 0.00 0.00 0.00 59 1009.7
20260901002016 73 9 1.0 9.0 0.00 0.00 0.00 59 1009.9
20260901001532 73 44 2.0 9.0 0.00 0.00 0.00 59 1009.9
20260901001016 73 51 2.0 8.0 0.00 0.00 0.00 59 1010.0
20260901000517 74 9 1.0 4.0 0.00 0.00 0.00 60 1010.0
20260901000030 74 153 1.0 6.0 0.00 0.00 0.00 59 1010.0
20260831235515 74 34 2.0 8.0 0.00 0.00 0.00 58 1010.0
20260831235014 74 65 3.0 7.0 0.00 0.00 0.00 58 1010.1
20260831234537 74 51 2.0 6.0 0.00 0.00 0.00 57 1010.2
20260831234013 75 34 0.0 8.0 0.00 0.00 0.00 57 1010.1
20260831233519 75 244 3.0 8.0 0.00 0.00 0.00 56 1010.2
20260831233030 75 38 2.0 5.0 0.00 0.00 0.00 56 1010.2
20260831232517 75 68 0.0 7.0 0.00 0.00 0.00 56 1010.3
20260831232013 76 239 1.0 7.0 0.00 0.00 0.00 54 1010.3
20260831231528 76 20 1.0 5.0 0.00 0.00 0.00 53 1010.3
20260831231019 76 59 1.0 8.0 0.00 0.00 0.00 54 1010.3
20260831230516 76 46 1.0 8.0 0.00 0.00 0.00 53 1010.5
20260831230031 76 64 1.0 9.0 0.00 0.00 0.00 54 1010.5
20260831225517 76 321 4.0 11.0 0.00 0.00 0.00 54 1010.6
20260831225014 76 239 2.0 11.0 0.00 0.00 0.00 55 1010.6
20260831224530 76 46 3.0 9.0 0.00 0.00 0.00 53 1010.7
20260831224016 76 17 1.0 10.0 0.00 0.00 0.00 54 1010.9
20260831223516 76 44 5.0 10.0 0.00 0.00 0.00 53 1010.8
20260831223034 76 265 1.0 4.0 0.00 0.00 0.00 55 1010.9
20260831222514 76 100 1.0 4.0 0.00 0.00 0.00 56 1010.9
20260831222015 76 34 1.0 6.0 0.00 0.00 0.00 54 1011.1
20260831221528 76 93 2.0 6.0 0.00 0.00 0.00 53 1011.2
20260831221014 76 51 1.0 9.0 0.00 0.00 0.00 54 1011.3
20260831220513 76 265 1.0 9.0 0.00 0.00 0.00 54 1011.3
20260831220031 76 47 1.0 14.0 0.00 0.00 0.00 54 1011.3
20260831215515 76 38 1.0 14.0 0.00 0.00 0.00 55 1011.3
20260831215018 76 246 1.0 6.0 0.00 0.00 0.00 54 1011.3
20260831214539 76 44 2.0 10.0 0.00 0.00 0.00 55 1011.4
20260831214012 76 47 5.0 10.0 0.00 0.00 0.00 53 1011.5
20260831213513 76 51 1.0 7.0 0.00 0.00 0.00 54 1011.5
20260831213038 76 61 1.0 7.0 0.00 0.00 0.00 56 1011.6
20260831212513 75 17 1.0 7.0 0.00 0.00 0.00 56 1011.6
20260831212020 76 309 1.0 7.0 0.00 0.00 0.00 56 1011.6
20260831211531 75 292 2.0 10.0 0.00 0.00 0.00 56 1011.7
20260831211014 75 59 3.0 10.0 0.00 0.00 0.00 55 1011.8
20260831210515 75 19 1.0 10.0 0.00 0.00 0.00 57 1011.8
20260831210029 75 51 4.0 10.0 0.00 0.00 0.00 56 1011.8
20260831205514 75 325 1.0 9.0 0.00 0.00 0.00 57 1011.9
20260831205019 75 42 2.0 9.0 0.00 0.00 0.00 55 1011.9
20260831204530 75 236 2.0 7.0 0.00 0.00 0.00 57 1011.9
20260831204015 75 53 2.0 5.0 0.00 0.00 0.00 56 1012.0
20260831203515 74 221 2.0 9.0 0.00 0.00 0.00 55 1012.1
20260831203047 75 49 4.0 9.0 0.00 0.00 0.00 56 1012.2
20260831202515 74 243 2.0 5.0 0.00 0.00 0.00 56 1012.4
20260831202017 74 120 1.0 5.0 0.00 0.00 0.00 56 1012.5
20260831201531 74 212 0.0 5.0 0.00 0.00 0.00 57 1012.6
20260831201017 73 93 1.0 8.0 0.00 0.00 0.00 57 1012.6
20260831200513 73 44 3.0 9.0 0.00 0.00 0.00 57 1012.6
20260831200036 73 26 3.0 9.0 0.00 0.00 0.00 57 1012.6
20260831195514 74 61 2.0 4.0 0.00 0.00 0.00 56 1012.7
20260831195019 74 68 1.0 4.0 0.00 0.00 0.00 57 1012.8
20260831194530 73 44 1.0 6.0 0.00 0.00 0.00 57 1012.8
20260831194013 73 59 1.0 6.0 0.00 0.00 0.00 57 1012.9
20260831193516 72 30 0.0 4.0 0.00 0.00 0.00 59 1013.0
20260831193030 72 9 1.0 8.0 0.00 0.00 0.00 57 1013.1
20260831192514 71 93 1.0 8.0 0.00 0.00 0.00 57 1013.3
20260831192015 71 76 1.0 7.0 0.00 0.00 0.00 60 1013.3
20260831191530 71 330 4.0 7.0 0.00 0.00 0.00 59 1013.4
20260831191013 70 36 3.0 7.0 0.00 0.00 0.00 61 1013.4
20260831190513 70 257 1.0 7.0 0.00 0.00 0.00 63 1013.6
20260831190047 69 101 3.0 7.0 0.00 0.00 0.00 63 1013.6
20260831185514 69 51 1.0 9.0 0.00 0.00 0.00 64 1013.6
20260831185019 68 44 3.0 9.0 0.00 0.00 0.00 64 1013.6
20260831184532 69 51 4.0 8.0 0.00 0.00 0.00 64 1013.7
20260831184013 69 93 1.0 4.0 0.00 0.00 0.00 64 1013.7
20260831183515 68 244 1.0 4.0 0.00 0.00 0.00 66 1013.8
20260831183038 67 41 1.0 10.0 0.00 0.00 0.00 67 1013.9
20260831182514 68 30 3.0 10.0 0.00 0.00 0.00 67 1013.9
20260831182013 68 57 2.0 5.0 0.00 0.00 0.00 67 1014.0
20260831181506 67 9 1.0 3.0 0.00 0.00 0.00 69 1014.0
20260831181002 67 137 0.0 4.0 0.00 0.00 0.00 70 1014.0
20260831180502 66 9 1.0 5.0 0.00 0.00 0.00 70 1014.1
20260831180003 66 309 1.0 5.0 0.00 0.00 0.00 70 1014.4
20260831175502 65 309 1.0 6.0 0.00 0.00 0.00 71 1014.4
20260831175006 64 178 1.0 6.0 0.00 0.00 0.00 71 1014.5
20260831174507 64 38 1.0 4.0 0.00 0.00 0.00 73 1014.5
20260831174004 63 93 1.0 6.0 0.00 0.00 0.00 74 1014.5
20260831173502 63 38 3.0 6.0 0.00 0.00 0.00 73 1014.5
20260831173005 63 72 1.0 4.0 0.00 0.00 0.00 74 1014.5
20260831172501 63 43 1.0 6.0 0.00 0.00 0.00 76 1014.6
20260831172004 63 61 2.0 6.0 0.00 0.00 0.00 74 1014.7
20260831171503 62 51 1.0 3.0 0.00 0.00 0.00 76 1014.8
20260831171003 62 64 1.0 3.0 0.00 0.00 0.00 76 1014.7
20260831170503 61 76 0.0 2.0 0.00 0.00 0.00 81 1014.7
20260831170003 60 309 0.0 3.0 0.00 0.00 0.00 82 1014.7
20260831165502 59 178 1.0 3.0 0.00 0.00 0.00 85 1014.7
20260831165006 58 26 1.0 3.0 0.00 0.00 0.00 86 1014.7
20260831164504 57 51 0.0 3.0 0.00 0.00 0.00 90 1014.8
20260831164004 56 51 1.0 3.0 0.00 0.00 0.00 90 1014.8
20260831163504 55 51 0.0 3.0 0.00 0.00 0.00 93 1014.9
20260831163003 54 34 0.0 3.0 0.00 0.00 0.00 96 1015.0
20260831162505 53 61 0.0 2.0 0.00 0.00 0.00 96 1015.0
20260831162006 53 239 0.0 2.0 0.00 0.00 0.00 96 1015.1
20260831161506 52 9 0.0 2.0 0.00 0.00 0.00 96 1015.0
20260831161006 52 9 0.0 2.0 0.00 0.00 0.00 96 1015.0
20260831160503 51 178 0.0 2.0 0.00 0.00 0.00 96 1015.0
20260831160004 51 9 0.0 2.0 0.00 0.00 0.00 96 1015.1
20260831155506 51 196 0.0 2.0 0.00 0.00 0.00 96 1015.1
20260831155007 50 120 0.0 2.0 0.00 0.00 0.00 96 1015.1
20260831154516 49 51 0.0 2.0 0.00 0.00 0.00 96 1015.1
20260831154004 48 309 0.0 2.0 0.00 0.00 0.00 96 1015.2
20260831153506 48 51 0.0 2.0 0.00 0.00 0.00 96 1015.2
20260831153045 47 34 0.0 2.0 0.00 0.00 0.00 95 1015.2
20260831152510 47 9 0.0 1.0 0.00 0.00 0.00 95 1015.2
20260831152013 47 9 0.0 1.0 0.00 0.00 0.00 95 1015.3
20260831151527 47 41 0.0 1.0 0.00 0.00 0.00 95 1015.3
20260831151013 46 9 0.0 2.0 0.00 0.00 0.00 95 1015.2
20260831150512 46 34 0.0 2.0 0.00 0.00 0.00 95 1015.2
20260831150033 46 34 0.0 1.0 0.00 0.00 0.00 95 1015.2
20260831145508 46 51 0.0 2.0 0.00 0.00 0.00 95 1015.2
20260831145010 46 34 0.0 2.0 0.00 0.00 0.00 95 1015.1
20260831144526 45 26 0.0 2.0 0.00 0.00 0.00 95 1015.1
20260831144012 45 9 0.0 2.0 0.00 0.00 0.00 94 1015.1
20260831143510 45 9 0.0 1.0 0.00 0.00 0.00 94 1015.1
20260831143026 45 34 0.0 1.0 0.00 0.00 0.00 94 1015.0
20260831142512 45 34 0.0 1.0 0.00 0.00 0.00 94 1015.1
20260831142012 45 34 0.0 1.0 0.00 0.00 0.00 94 1015.1
20260831141525 45 9 0.0 1.0 0.00 0.00 0.00 94 1015.0
20260831141012 45 51 0.0 1.0 0.00 0.00 0.00 94 1015.1
20260831140513 45 9 0.0 1.0 0.00 0.00 0.00 94 1015.3
20260831140024 45 34 0.0 1.0 0.00 0.00 0.00 94 1015.3
20260831135513 45 9 0.0 1.0 0.00 0.00 0.00 94 1015.3
20260831135012 45 9 0.0 1.0 0.00 0.00 0.00 94 1015.2
20260831134528 45 9 0.0 1.0 0.00 0.00 0.00 94 1015.1
20260831134009 45 51 0.0 1.0 0.00 0.00 0.00 93 1015.1
20260831133512 45 9 0.0 1.0 0.00 0.00 0.00 93 1015.2
20260831133030 45 51 0.0 1.0 0.00 0.00 0.00 93 1015.2
20260831132514 45 9 0.0 1.0 0.00 0.00 0.00 93 1015.2
20260831132011 45 51 0.0 1.0 0.00 0.00 0.00 93 1015.2
20260831131531 45 9 0.0 1.0 0.00 0.00 0.00 93 1015.2
20260831131012 45 9 0.0 1.0 0.00 0.00 0.00 93 1015.2
20260831130514 46 9 0.0 1.0 0.00 0.00 0.00 93 1015.3
20260831130040 46 68 0.0 1.0 0.00 0.00 0.00 93 1015.4
20260831125516 46 68 0.0 1.0 0.00 0.00 0.00 93 1015.5
20260831125017 46 76 0.0 1.0 0.00 0.00 0.00 93 1015.5
20260831124531 46 51 0.0 1.0 0.00 0.00 0.00 93 1015.5
20260831124014 46 51 0.0 1.0 0.00 0.00 0.00 93 1015.5
20260831123515 46 68 0.0 1.0 0.00 0.00 0.00 93 1015.6
20260831123043 46 67 0.0 1.0 0.00 0.00 0.00 93 1015.5
20260831122514 46 51 0.0 1.0 0.00 0.00 0.00 93 1015.7
20260831122011 46 9 0.0 1.0 0.00 0.00 0.00 93 1015.7
20260831121534 46 68 0.0 1.0 0.00 0.00 0.00 93 1015.7
20260831121018 46 51 0.0 1.0 0.00 0.00 0.00 93 1015.7
20260831120516 46 34 0.0 1.0 0.00 0.00 0.00 93 1015.8
20260831115516 46 68 0.0 1.0 0.00 0.00 0.00 93 1015.8
20260831115016 47 51 0.0 1.0 0.00 0.00 0.00 93 1015.9
20260831114533 47 67 0.0 1.0 0.00 0.00 0.00 93 1016.0
20260831114012 47 51 0.0 2.0 0.00 0.00 0.00 93 1016.0
20260831113516 47 68 0.0 2.0 0.00 0.00 0.00 93 1016.0
20260831113032 47 51 0.0 1.0 0.00 0.00 0.00 93 1016.0
20260831112515 47 51 0.0 1.0 0.00 0.00 0.00 93 1016.0
20260831112015 47 51 0.0 1.0 0.00 0.00 0.00 93 1016.1
20260831111534 47 34 0.0 1.0 0.00 0.00 0.00 93 1016.1
20260831111012 47 34 0.0 1.0 0.00 0.00 0.00 93 1016.2
20260831110514 47 68 0.0 1.0 0.00 0.00 0.00 93 1016.3
20260831110031 47 34 0.0 1.0 0.00 0.00 0.00 93 1016.2
20260831105517 47 68 0.0 1.0 0.00 0.00 0.00 92 1016.2
20260831105016 47 61 0.0 2.0 0.00 0.00 0.00 93 1016.3
20260831104537 48 51 0.0 2.0 0.00 0.00 0.00 93 1016.2
20260831104016 48 76 0.0 1.0 0.00 0.00 0.00 93 1016.2
20260831103515 48 51 0.0 1.0 0.00 0.00 0.00 93 1016.4
20260831103032 48 68 0.0 1.0 0.00 0.00 0.00 92 1016.4
20260831102513 48 51 0.0 1.0 0.00 0.00 0.00 92 1016.4
20260831102014 48 68 0.0 1.0 0.00 0.00 0.00 92 1016.5
20260831101535 48 68 0.0 1.0 0.00 0.00 0.00 92 1016.5
20260831101017 48 68 0.0 1.0 0.00 0.00 0.00 92 1016.6
20260831100514 48 68 0.0 1.0 0.00 0.00 0.00 92 1016.6
20260831100036 48 76 0.0 1.0 0.00 0.00 0.00 92 1016.7
20260831095514 48 68 0.0 1.0 0.00 0.00 0.00 92 1016.7
20260831095013 48 68 0.0 1.0 0.00 0.00 0.00 92 1016.8
20260831094530 48 68 0.0 1.0 0.00 0.00 0.00 92 1016.9
20260831094017 49 68 0.0 2.0 0.00 0.00 0.00 92 1017.1
20260831093516 49 76 0.0 2.0 0.00 0.00 0.00 92 1017.1
20260831093029 49 51 0.0 1.0 0.00 0.00 0.00 92 1017.1
20260831092515 49 51 0.0 1.0 0.00 0.00 0.00 92 1017.2
20260831092014 49 51 0.0 1.0 0.00 0.00 0.00 92 1017.3
20260831091529 49 51 0.0 1.0 0.00 0.00 0.00 92 1017.3
20260831091017 49 51 0.0 1.0 0.00 0.00 0.00 92 1017.3
20260831090513 49 34 0.0 1.0 0.00 0.00 0.00 92 1017.4
20260831090030 49 34 0.0 1.0 0.00 0.00 0.00 92 1017.4
20260831085518 49 51 0.0 1.0 0.00 0.00 0.00 92 1017.3
20260831085016 49 51 0.0 1.0 0.00 0.00 0.00 92 1017.3
20260831084532 49 34 0.0 1.0 0.00 0.00 0.00 92 1017.4
20260831084015 49 51 0.0 1.0 0.00 0.00 0.00 91 1017.3
20260831083512 49 51 0.0 1.0 0.00 0.00 0.00 91 1017.4
20260831083030 49 68 0.0 1.0 0.00 0.00 0.00 91 1017.5
20260831082514 50 51 0.0 1.0 0.00 0.00 0.00 91 1017.6
20260831082015 50 51 0.0 1.0 0.00 0.00 0.00 91 1017.6
20260831081540 50 51 0.0 1.0 0.00 0.00 0.00 91 1017.5
20260831081016 50 51 0.0 1.0 0.00 0.00 0.00 91 1017.4
20260831080516 50 9 0.0 1.0 0.00 0.00 0.00 91 1017.5
20260831080034 50 80 0.0 1.0 0.00 0.00 0.00 91 1017.5
20260831075513 50 51 0.0 1.0 0.00 0.00 0.00 91 1017.5
20260831075016 50 9 0.0 1.0 0.00 0.00 0.00 91 1017.5
20260831074532 50 51 0.0 1.0 0.00 0.00 0.00 91 1017.6
20260831074015 50 51 0.0 1.0 0.00 0.00 0.00 91 1017.6
20260831073515 51 51 0.0 1.0 0.00 0.00 0.00 91 1017.6
20260831073031 51 9 0.0 1.0 0.00 0.00 0.00 91 1017.7
20260831072516 51 34 0.0 1.0 0.00 0.00 0.00 91 1017.8
20260831072013 51 51 0.0 1.0 0.00 0.00 0.00 91 1017.9
20260831071533 51 9 0.0 1.0 0.00 0.00 0.00 90 1017.9
20260831071015 51 68 0.0 1.0 0.00 0.00 0.00 90 1017.9
20260831070514 51 51 0.0 1.0 0.00 0.00 0.00 90 1017.9
20260831070040 51 51 0.0 1.0 0.00 0.00 0.00 90 1018.0
20260831065516 52 68 0.0 0.0 0.00 0.00 0.00 90 1018.1
20260831065014 52 9 0.0 1.0 0.00 0.00 0.00 90 1018.1
20260831064530 52 34 0.0 1.0 0.00 0.00 0.00 90 1018.2
20260831064017 52 93 0.0 1.0 0.00 0.00 0.00 90 1018.2
20260831063520 52 9 0.0 1.0 0.00 0.00 0.00 90 1018.2
20260831063028 52 51 0.0 1.0 0.00 0.00 0.00 90 1018.3
20260831062512 52 9 0.0 1.0 0.00 0.00 0.00 89 1018.3
20260831062012 52 9 0.0 1.0 0.00 0.00 0.00 89 1018.3
20260831061532 52 93 0.0 1.0 0.00 0.00 0.00 89 1018.4
20260831061014 52 51 0.0 1.0 0.00 0.00 0.00 89 1018.4
20260831060515 53 51 0.0 1.0 0.00 0.00 0.00 88 1018.6